DLH108 EDDF-LCPH

Flight info

Callsign DLH108
Flight time 3h 17m
Altitude 31000
Route SULUS4D SULUS Z650 VEMUT/N0449F350 DCT PEMEL DCT DITIS DCT ARSIN/N0446F370 DCT OLATI DCT BABIT DCT OKLOP DCT NISVA N131 RODIP UN131 KULAR UT39 TOMBI M855 DASNI M32 TOBAL
Aircraft A320/M-SDE3FGHIRWY/LB1

Departure

Time 2026-04-18 08:04
Airport Frankfurt Main Airport (EDDF)

Arrival

Time 2026-04-18 11:22
Airport Paphos International Airport (LCPH)
Time Latitude Longitude Altitude Speed Heading
2026-04-18 07:41 50.04416 8.56276 356 ft 0 kts 162°
2026-04-18 07:52 50.04420 8.56274 356 ft 3 kts 162°
2026-04-18 07:52 50.04436 8.56265 362 ft 4 kts 161°
2026-04-18 07:53 50.04462 8.56253 360 ft 4 kts 167°
2026-04-18 07:53 50.04484 8.56254 358 ft 4 kts 236°
2026-04-18 07:53 50.04487 8.56261 360 ft 4 kts 249°
2026-04-18 07:53 50.04478 8.56222 361 ft 4 kts 249°
2026-04-18 07:54 50.04468 8.56182 362 ft 4 kts 250°
2026-04-18 07:54 50.04459 8.56143 357 ft 4 kts 250°
2026-04-18 07:54 50.04453 8.56119 363 ft 0 kts 250°
2026-04-18 07:58 50.04437 8.56065 365 ft 11 kts 236°
2026-04-18 07:58 50.04349 8.56052 357 ft 15 kts 160°
2026-04-18 07:59 50.04260 8.56042 357 ft 14 kts 234°
2026-04-18 07:59 50.04228 8.55913 356 ft 12 kts 250°
2026-04-18 07:59 50.04201 8.55792 355 ft 12 kts 251°
2026-04-18 07:59 50.04170 8.55650 352 ft 16 kts 250°
2026-04-18 08:00 50.04130 8.55481 355 ft 16 kts 250°
2026-04-18 08:00 50.04089 8.55310 356 ft 17 kts 249°
2026-04-18 08:00 50.04050 8.55147 360 ft 17 kts 250°
2026-04-18 08:00 50.04002 8.54948 357 ft 21 kts 250°
2026-04-18 08:01 50.03948 8.54721 356 ft 24 kts 249°
2026-04-18 08:01 50.03888 8.54471 350 ft 26 kts 249°
2026-04-18 08:01 50.03799 8.54217 356 ft 27 kts 245°
2026-04-18 08:01 50.03737 8.53959 344 ft 26 kts 249°
2026-04-18 08:02 50.03673 8.53692 350 ft 27 kts 249°
2026-04-18 08:02 50.03603 8.53413 335 ft 28 kts 250°
2026-04-18 08:02 50.03535 8.53124 338 ft 29 kts 250°
2026-04-18 08:02 50.03473 8.52873 333 ft 18 kts 247°
2026-04-18 08:03 50.03424 8.52690 333 ft 18 kts 248°
2026-04-18 08:03 50.03355 8.52594 334 ft 10 kts 182°
2026-04-18 08:03 50.03332 8.52594 335 ft 21 kts 180°
2026-04-18 08:03 50.02913 8.52598 333 ft 95 kts 180°
2026-04-18 08:04 50.02054 8.52609 332 ft 149 kts 179°
2026-04-18 08:04 50.00891 8.52619 578 ft 173 kts 178°
2026-04-18 08:04 49.99696 8.52626 1318 ft 172 kts 180°
2026-04-18 08:04 49.98476 8.52632 1885 ft 182 kts 180°
2026-04-18 08:05 49.97156 8.52968 2155 ft 205 kts 155°
2026-04-18 08:05 49.96004 8.54422 2426 ft 227 kts 123°
2026-04-18 08:05 49.95214 8.56599 3128 ft 232 kts 119°
2026-04-18 08:05 49.94451 8.58775 3960 ft 234 kts 115°
2026-04-18 08:06 49.94023 8.61252 4649 ft 248 kts 96°
2026-04-18 08:06 49.93898 8.64036 5108 ft 268 kts 94°
2026-04-18 08:06 49.93696 8.66940 5918 ft 273 kts 105°
2026-04-18 08:06 49.92961 8.69660 6770 ft 275 kts 124°
2026-04-18 08:07 49.91679 8.71855 7595 ft 276 kts 144°
2026-04-18 08:07 49.90108 8.73593 8408 ft 279 kts 146°
2026-04-18 08:07 49.88618 8.75564 9201 ft 285 kts 133°
2026-04-18 08:07 49.87485 8.78057 9984 ft 290 kts 120°
2026-04-18 08:08 49.86497 8.80830 10571 ft 302 kts 120°
2026-04-18 08:08 49.85438 8.83785 10801 ft 326 kts 120°
2026-04-18 08:08 49.84292 8.86962 10987 ft 349 kts 120°
2026-04-18 08:08 49.83074 8.90324 11302 ft 365 kts 120°
2026-04-18 08:09 49.81816 8.93784 11879 ft 372 kts 120°
2026-04-18 08:09 49.80534 8.97298 12497 ft 378 kts 120°
2026-04-18 08:09 49.79233 9.00856 13137 ft 383 kts 120°
2026-04-18 08:09 49.77910 9.04475 13772 ft 389 kts 120°
2026-04-18 08:10 49.76622 9.08191 14344 ft 395 kts 115°
2026-04-18 08:10 49.75705 9.12214 14914 ft 399 kts 104°
2026-04-18 08:10 49.75045 9.16404 15492 ft 402 kts 103°
2026-04-18 08:10 49.74379 9.20622 16069 ft 406 kts 104°
2026-04-18 08:11 49.73698 9.24879 16625 ft 410 kts 104°
2026-04-18 08:11 49.73005 9.29174 17187 ft 413 kts 104°
2026-04-18 08:11 49.72300 9.33497 17717 ft 417 kts 104°
2026-04-18 08:11 49.71584 9.37853 18253 ft 420 kts 104°
2026-04-18 08:12 49.70868 9.42192 18733 ft 424 kts 104°
2026-04-18 08:12 49.70137 9.46625 19194 ft 427 kts 104°
2026-04-18 08:12 49.69404 9.51085 19669 ft 430 kts 104°
2026-04-18 08:12 49.68666 9.55571 20123 ft 433 kts 104°
2026-04-18 08:13 49.67931 9.60086 20585 ft 435 kts 102°
2026-04-18 08:13 49.67500 9.64719 21032 ft 438 kts 92°
2026-04-18 08:13 49.67559 9.69423 21474 ft 440 kts 83°
2026-04-18 08:13 49.68116 9.74073 21911 ft 441 kts 73°
2026-04-18 08:14 49.68939 9.78652 22336 ft 444 kts 73°
2026-04-18 08:14 49.69761 9.83271 22769 ft 447 kts 73°
2026-04-18 08:14 49.70578 9.87913 23183 ft 450 kts 73°
2026-04-18 08:14 49.71516 9.92537 23583 ft 451 kts 66°
2026-04-18 08:15 49.72875 9.96901 23943 ft 452 kts 57°
2026-04-18 08:15 49.74630 10.00928 24275 ft 453 kts 52°
2026-04-18 08:15 49.76476 10.04885 24609 ft 455 kts 52°
2026-04-18 08:15 49.78304 10.08817 24941 ft 457 kts 52°
2026-04-18 08:16 49.80162 10.12829 25275 ft 460 kts 52°
2026-04-18 08:16 49.82026 10.16863 25605 ft 462 kts 52°
2026-04-18 08:16 49.83894 10.20922 25923 ft 464 kts 52°
2026-04-18 08:16 49.85765 10.25008 26223 ft 466 kts 52°
2026-04-18 08:17 49.87645 10.29119 26539 ft 468 kts 52°
2026-04-18 08:17 49.89533 10.33247 26838 ft 470 kts 53°
2026-04-18 08:17 49.91430 10.37392 27124 ft 472 kts 53°
2026-04-18 08:17 49.93335 10.41566 27412 ft 475 kts 53°
2026-04-18 08:18 49.95241 10.45756 27700 ft 477 kts 53°
2026-04-18 08:18 49.97157 10.49970 27978 ft 479 kts 53°
2026-04-18 08:18 49.99082 10.54205 28254 ft 481 kts 53°
2026-04-18 08:18 50.01008 10.58452 28612 ft 480 kts 53°
2026-04-18 08:19 50.02872 10.62760 29012 ft 481 kts 58°
2026-04-18 08:19 50.04291 10.67475 29382 ft 482 kts 69°
2026-04-18 08:19 50.05164 10.72511 29760 ft 484 kts 79°
2026-04-18 08:19 50.05469 10.77714 30130 ft 484 kts 90°
2026-04-18 08:20 50.05186 10.82918 30460 ft 483 kts 101°
2026-04-18 08:20 50.04351 10.87911 30767 ft 482 kts 109°
2026-04-18 08:20 50.03301 10.92865 31073 ft 482 kts 109°
2026-04-18 08:20 50.02251 10.97813 31183 ft 483 kts 109°
2026-04-18 08:21 50.01199 11.02776 31201 ft 483 kts 109°
2026-04-18 08:21 49.99089 11.12698 31200 ft 484 kts 109°
2026-04-18 08:22 49.96961 11.22622 31197 ft 484 kts 109°
2026-04-18 08:22 49.94845 11.32554 31198 ft 484 kts 109°
2026-04-18 08:23 49.92747 11.42503 31194 ft 487 kts 108°
2026-04-18 08:23 49.90831 11.52592 31188 ft 487 kts 106°
2026-04-18 08:24 49.89041 11.62727 31186 ft 487 kts 105°
2026-04-18 08:24 49.87719 11.72942 31181 ft 488 kts 97°
2026-04-18 08:25 49.86812 11.83362 31183 ft 488 kts 98°
2026-04-18 08:25 49.85868 11.93780 31183 ft 488 kts 98°
2026-04-18 08:26 49.84914 12.04189 31185 ft 488 kts 98°
2026-04-18 08:26 49.83975 12.14606 31183 ft 488 kts 97°
2026-04-18 08:27 49.83025 12.25023 31188 ft 488 kts 98°
2026-04-18 08:27 49.82061 12.35427 31192 ft 488 kts 98°
2026-04-18 08:28 49.80936 12.45783 31197 ft 488 kts 105°
2026-04-18 08:28 49.78566 12.55541 31201 ft 488 kts 112°
2026-04-18 08:29 49.75959 12.65236 31200 ft 488 kts 112°
2026-04-18 08:29 49.73349 12.74913 31201 ft 488 kts 112°
2026-04-18 08:30 49.70727 12.84588 31210 ft 488 kts 112°
2026-04-18 08:30 49.68092 12.94245 31220 ft 488 kts 112°
2026-04-18 08:31 49.65470 13.03835 31224 ft 488 kts 112°
2026-04-18 08:31 49.62830 13.13479 31232 ft 488 kts 112°
2026-04-18 08:32 49.60178 13.23122 31233 ft 488 kts 112°
2026-04-18 08:32 49.57516 13.32743 31231 ft 488 kts 113°
2026-04-18 08:33 49.54294 13.41970 31219 ft 489 kts 119°
2026-04-18 08:33 49.50936 13.51068 31211 ft 489 kts 119°
2026-04-18 08:34 49.47565 13.60161 31205 ft 489 kts 119°
2026-04-18 08:34 49.44216 13.69196 31201 ft 489 kts 119°
2026-04-18 08:35 49.40843 13.78273 31198 ft 489 kts 119°
2026-04-18 08:35 49.37452 13.87344 31198 ft 490 kts 119°
2026-04-18 08:36 49.34053 13.96398 31198 ft 490 kts 119°
2026-04-18 08:36 49.30652 14.05442 31200 ft 490 kts 118°
2026-04-18 08:37 49.27243 14.14482 31197 ft 490 kts 118°
2026-04-18 08:37 49.23826 14.23513 31203 ft 490 kts 118°
2026-04-18 08:38 49.20417 14.32459 31205 ft 490 kts 118°
2026-04-18 08:38 49.16973 14.41460 31207 ft 490 kts 118°
2026-04-18 08:39 49.13534 14.50456 31213 ft 490 kts 118°
2026-04-18 08:39 49.10090 14.59441 31210 ft 490 kts 118°
2026-04-18 08:40 49.06634 14.68416 31209 ft 490 kts 118°
2026-04-18 08:40 49.03175 14.77362 31211 ft 490 kts 118°
2026-04-18 08:41 48.99703 14.86311 31208 ft 490 kts 118°
2026-04-18 08:41 48.96224 14.95230 31208 ft 490 kts 118°
2026-04-18 08:42 48.92735 15.04149 31213 ft 490 kts 118°
2026-04-18 08:42 48.88807 15.12542 31211 ft 494 kts 131°
2026-04-18 08:43 48.83652 15.19452 31212 ft 495 kts 139°
2026-04-18 08:43 48.78353 15.26163 31376 ft 497 kts 139°
2026-04-18 08:43 48.75703 15.29526 31717 ft 496 kts 139°
2026-04-18 08:44 48.73056 15.32878 32043 ft 496 kts 139°
2026-04-18 08:44 48.70409 15.36222 32366 ft 495 kts 139°
2026-04-18 08:44 48.67762 15.39554 32679 ft 495 kts 139°
2026-04-18 08:44 48.65114 15.42879 32986 ft 495 kts 139°
2026-04-18 08:45 48.62467 15.46198 33289 ft 494 kts 139°
2026-04-18 08:45 48.59819 15.49517 33607 ft 494 kts 138°
2026-04-18 08:45 48.57178 15.52826 33916 ft 494 kts 138°
2026-04-18 08:45 48.54534 15.56134 34221 ft 493 kts 138°
2026-04-18 08:46 48.51890 15.59438 34487 ft 493 kts 138°
2026-04-18 08:46 48.49251 15.62730 34764 ft 492 kts 138°
2026-04-18 08:46 48.46611 15.66016 35055 ft 491 kts 138°
2026-04-18 08:46 48.44012 15.69252 35339 ft 490 kts 138°
2026-04-18 08:47 48.41385 15.72522 35620 ft 489 kts 138°
2026-04-18 08:47 48.38762 15.75780 35889 ft 488 kts 138°
2026-04-18 08:47 48.36146 15.79021 36124 ft 488 kts 138°
2026-04-18 08:47 48.33528 15.82256 36377 ft 487 kts 138°
2026-04-18 08:48 48.30916 15.85482 36618 ft 486 kts 138°
2026-04-18 08:48 48.28302 15.88706 36849 ft 485 kts 138°
2026-04-18 08:48 48.25693 15.91918 37087 ft 485 kts 138°
2026-04-18 08:48 48.23087 15.95124 37217 ft 485 kts 137°
2026-04-18 08:49 48.20479 15.98332 37235 ft 485 kts 137°
2026-04-18 08:49 48.15269 16.04732 37225 ft 484 kts 137°
2026-04-18 08:50 48.10049 16.11114 37233 ft 484 kts 137°
2026-04-18 08:50 48.04822 16.17478 37231 ft 485 kts 137°
2026-04-18 08:51 47.99592 16.23849 37236 ft 485 kts 137°
2026-04-18 08:51 47.94355 16.30209 37234 ft 486 kts 137°
2026-04-18 08:52 47.89107 16.36557 37231 ft 486 kts 137°
2026-04-18 08:52 47.83876 16.42856 37232 ft 487 kts 137°
2026-04-18 08:53 47.78607 16.49203 37235 ft 488 kts 137°
2026-04-18 08:53 47.74217 16.54475 37236 ft 488 kts 137°
2026-04-18 08:54 47.68933 16.60797 37230 ft 488 kts 137°
2026-04-18 08:54 47.63641 16.67125 37226 ft 488 kts 137°
2026-04-18 08:55 47.57486 16.74465 37225 ft 489 kts 137°
2026-04-18 08:55 47.53090 16.79804 37222 ft 488 kts 135°
2026-04-18 08:56 47.47957 16.86352 37222 ft 487 kts 134°
2026-04-18 08:56 47.42878 16.92888 37218 ft 487 kts 135°
2026-04-18 08:57 47.35139 17.02652 37216 ft 488 kts 135°
2026-04-18 08:57 47.29950 17.09125 37218 ft 489 kts 135°
2026-04-18 08:58 47.24751 17.15601 37222 ft 489 kts 135°
2026-04-18 08:58 47.19560 17.22082 37222 ft 490 kts 135°
2026-04-18 08:59 47.14394 17.28522 37225 ft 490 kts 135°
2026-04-18 08:59 47.09189 17.34987 37220 ft 490 kts 135°
2026-04-18 09:00 47.03977 17.41435 37218 ft 490 kts 135°
2026-04-18 09:00 46.98762 17.47871 37213 ft 490 kts 135°
2026-04-18 09:01 46.93738 17.54564 37208 ft 487 kts 131°
2026-04-18 09:01 46.88932 17.61543 37207 ft 487 kts 129°
2026-04-18 09:02 46.84123 17.68515 37218 ft 487 kts 130°
2026-04-18 09:02 46.79232 17.75386 37216 ft 488 kts 131°
2026-04-18 09:03 46.74337 17.82160 37214 ft 488 kts 131°
2026-04-18 09:03 46.69421 17.88975 37212 ft 488 kts 131°
2026-04-18 09:04 46.64506 17.95803 37212 ft 488 kts 131°
2026-04-18 09:04 46.59592 18.02622 37213 ft 488 kts 131°
2026-04-18 09:05 46.54667 18.09424 37209 ft 488 kts 131°
2026-04-18 09:05 46.49742 18.16200 37205 ft 488 kts 131°
2026-04-18 09:06 46.44805 18.22976 37205 ft 489 kts 131°
2026-04-18 09:06 46.39897 18.29705 37205 ft 489 kts 132°
2026-04-18 09:07 46.34957 18.36466 37200 ft 489 kts 132°
2026-04-18 09:07 46.30007 18.43208 37201 ft 489 kts 132°
2026-04-18 09:08 46.25055 18.49938 37199 ft 489 kts 132°
2026-04-18 09:08 46.20100 18.56660 37201 ft 489 kts 132°
2026-04-18 09:09 46.15138 18.63370 37201 ft 488 kts 132°
2026-04-18 09:09 46.10186 18.70056 37197 ft 488 kts 133°
2026-04-18 09:10 46.05267 18.76684 37195 ft 487 kts 133°
2026-04-18 09:10 46.00304 18.83340 37193 ft 487 kts 133°
2026-04-18 09:11 45.95346 18.89976 37194 ft 487 kts 133°
2026-04-18 09:11 45.90422 18.96645 37193 ft 486 kts 131°
2026-04-18 09:12 45.85650 19.03505 37190 ft 485 kts 130°
2026-04-18 09:12 45.80932 19.10407 37186 ft 485 kts 131°
2026-04-18 09:13 45.76174 19.17253 37189 ft 484 kts 131°
2026-04-18 09:13 45.71416 19.23997 37183 ft 484 kts 131°
2026-04-18 09:14 45.66629 19.30765 37182 ft 484 kts 131°
2026-04-18 09:14 45.61854 19.37528 37176 ft 483 kts 131°
2026-04-18 09:15 45.57076 19.44280 37183 ft 483 kts 132°
2026-04-18 09:15 45.52303 19.51021 37173 ft 483 kts 132°
2026-04-18 09:16 45.47520 19.57748 37166 ft 483 kts 132°
2026-04-18 09:16 45.42732 19.64454 37162 ft 483 kts 132°
2026-04-18 09:17 45.37970 19.71101 37161 ft 482 kts 132°
2026-04-18 09:17 45.33178 19.77788 37160 ft 482 kts 133°
2026-04-18 09:18 45.28393 19.84455 37151 ft 482 kts 133°
2026-04-18 09:18 45.23600 19.91114 37145 ft 482 kts 133°
2026-04-18 09:19 45.18805 19.97752 37141 ft 482 kts 133°
2026-04-18 09:19 45.13998 20.04369 37139 ft 482 kts 133°
2026-04-18 09:20 45.09194 20.10982 37139 ft 482 kts 133°
2026-04-18 09:20 45.04420 20.17559 37138 ft 482 kts 133°
2026-04-18 09:21 44.99616 20.24159 37139 ft 482 kts 133°
2026-04-18 09:21 44.94795 20.30745 37136 ft 482 kts 133°
2026-04-18 09:22 44.89974 20.37310 37133 ft 482 kts 134°
2026-04-18 09:22 44.85146 20.43874 37135 ft 482 kts 134°
2026-04-18 09:23 44.80315 20.50429 37135 ft 482 kts 134°
2026-04-18 09:23 44.75480 20.56971 37134 ft 482 kts 134°
2026-04-18 09:24 44.70677 20.63451 37129 ft 482 kts 134°
2026-04-18 09:24 44.65841 20.69969 37120 ft 482 kts 134°
2026-04-18 09:25 44.60998 20.76487 37119 ft 482 kts 134°
2026-04-18 09:25 44.56158 20.82982 37114 ft 482 kts 134°
2026-04-18 09:26 44.51308 20.89462 37113 ft 481 kts 134°
2026-04-18 09:26 44.46460 20.95925 37114 ft 481 kts 134°
2026-04-18 09:27 44.41609 21.02393 37110 ft 482 kts 134°
2026-04-18 09:27 44.36751 21.08854 37109 ft 482 kts 134°
2026-04-18 09:28 44.31919 21.15256 37107 ft 482 kts 135°
2026-04-18 09:28 44.27037 21.21699 37107 ft 483 kts 135°
2026-04-18 09:29 44.22146 21.28136 37105 ft 484 kts 135°
2026-04-18 09:29 44.17248 21.34569 37102 ft 484 kts 135°
2026-04-18 09:30 44.12247 21.40863 37100 ft 485 kts 137°
2026-04-18 09:30 44.07180 21.47053 37096 ft 485 kts 137°
2026-04-18 09:31 44.02116 21.53260 37092 ft 485 kts 137°
2026-04-18 09:31 43.97102 21.59452 37085 ft 485 kts 137°
2026-04-18 09:32 43.92062 21.65677 37080 ft 485 kts 137°
2026-04-18 09:32 43.87022 21.71886 37072 ft 485 kts 137°
2026-04-18 09:33 43.81967 21.78072 37066 ft 485 kts 137°
2026-04-18 09:33 43.76907 21.84248 37070 ft 485 kts 137°
2026-04-18 09:34 43.71850 21.90422 37068 ft 485 kts 137°
2026-04-18 09:34 43.66790 21.96575 37069 ft 484 kts 138°
2026-04-18 09:35 43.61726 22.02720 37067 ft 484 kts 138°
2026-04-18 09:35 43.56667 22.08852 37068 ft 484 kts 138°
2026-04-18 09:36 43.51639 22.14932 37066 ft 484 kts 138°
2026-04-18 09:36 43.46576 22.21045 37067 ft 484 kts 138°
2026-04-18 09:37 43.41505 22.27142 37063 ft 484 kts 138°
2026-04-18 09:37 43.36429 22.33228 37059 ft 484 kts 139°
2026-04-18 09:38 43.31352 22.39306 37060 ft 484 kts 139°
2026-04-18 09:38 43.26278 22.45380 37062 ft 484 kts 139°
2026-04-18 09:39 43.21203 22.51434 37062 ft 483 kts 139°
2026-04-18 09:39 43.16120 22.57472 37061 ft 483 kts 139°
2026-04-18 09:40 43.11069 22.63455 37060 ft 483 kts 139°
2026-04-18 09:40 43.05989 22.69465 37061 ft 482 kts 139°
2026-04-18 09:41 43.00912 22.75461 37052 ft 482 kts 139°
2026-04-18 09:41 42.95815 22.81504 37057 ft 482 kts 138°
2026-04-18 09:42 42.90904 22.87725 37056 ft 482 kts 136°
2026-04-18 09:42 42.86104 22.94013 37055 ft 482 kts 136°
2026-04-18 09:43 42.81241 23.00312 37057 ft 482 kts 137°
2026-04-18 09:43 42.76332 23.06554 37065 ft 483 kts 137°
2026-04-18 09:44 42.71413 23.12769 37066 ft 482 kts 137°
2026-04-18 09:44 42.66498 23.18977 37070 ft 482 kts 137°
2026-04-18 09:45 42.61586 23.25187 37068 ft 482 kts 138°
2026-04-18 09:45 42.56671 23.31391 37064 ft 482 kts 138°
2026-04-18 09:46 42.51794 23.37539 37061 ft 481 kts 138°
2026-04-18 09:46 42.46885 23.43707 37064 ft 481 kts 138°
2026-04-18 09:47 42.41972 23.49860 37060 ft 481 kts 138°
2026-04-18 09:47 42.37054 23.56001 37059 ft 481 kts 138°
2026-04-18 09:48 42.32134 23.62132 37056 ft 481 kts 138°
2026-04-18 09:48 42.27203 23.68246 37048 ft 481 kts 139°
2026-04-18 09:49 42.22234 23.74289 37038 ft 481 kts 139°
2026-04-18 09:49 42.17284 23.80271 37037 ft 481 kts 139°
2026-04-18 09:50 42.12307 23.86309 37039 ft 481 kts 139°
2026-04-18 09:50 42.07333 23.92334 37036 ft 481 kts 139°
2026-04-18 09:51 42.02354 23.98344 37032 ft 480 kts 139°
2026-04-18 09:51 41.97378 24.04337 37025 ft 480 kts 140°
2026-04-18 09:52 41.92395 24.10317 37023 ft 480 kts 140°
2026-04-18 09:52 41.87414 24.16292 37022 ft 480 kts 140°
2026-04-18 09:53 41.82448 24.22260 37017 ft 479 kts 140°
2026-04-18 09:53 41.77472 24.28204 37015 ft 479 kts 140°
2026-04-18 09:54 41.73334 24.33134 37011 ft 479 kts 140°
2026-04-18 09:54 41.68351 24.39059 37008 ft 479 kts 140°
2026-04-18 09:55 41.62554 24.45935 37004 ft 479 kts 140°
2026-04-18 09:55 41.58371 24.50894 37008 ft 479 kts 140°
2026-04-18 09:56 41.53387 24.56798 37002 ft 479 kts 140°
2026-04-18 09:56 41.48432 24.62643 36999 ft 479 kts 140°
2026-04-18 09:57 41.43441 24.68515 37001 ft 478 kts 140°
2026-04-18 09:57 41.38458 24.74384 36997 ft 478 kts 140°
2026-04-18 09:58 41.33491 24.80263 37000 ft 477 kts 140°
2026-04-18 09:58 41.28534 24.86133 37001 ft 477 kts 140°
2026-04-18 09:59 41.23578 24.91996 36998 ft 476 kts 140°
2026-04-18 10:00 41.16140 25.00746 36998 ft 476 kts 140°
2026-04-18 10:00 41.11179 25.06564 37001 ft 476 kts 141°
2026-04-18 10:01 41.06221 25.12361 36996 ft 475 kts 141°
2026-04-18 10:01 41.03753 25.15246 37197 ft 470 kts 141°
2026-04-18 10:01 41.01294 25.18119 37049 ft 473 kts 141°
2026-04-18 10:02 40.96355 25.23878 36992 ft 473 kts 141°
2026-04-18 10:02 40.91412 25.29616 36989 ft 473 kts 141°
2026-04-18 10:03 40.86473 25.35345 36982 ft 472 kts 141°
2026-04-18 10:03 40.81546 25.41067 36976 ft 472 kts 141°
2026-04-18 10:04 40.76951 25.47182 36978 ft 474 kts 133°
2026-04-18 10:04 40.72655 25.53785 36978 ft 474 kts 133°
2026-04-18 10:05 40.68352 25.60383 36973 ft 474 kts 133°
2026-04-18 10:05 40.64044 25.66957 36969 ft 474 kts 133°
2026-04-18 10:06 40.59742 25.73518 36969 ft 473 kts 133°
2026-04-18 10:06 40.55437 25.80065 36972 ft 473 kts 133°
2026-04-18 10:07 40.51128 25.86612 36973 ft 473 kts 133°
2026-04-18 10:07 40.46843 25.93086 36969 ft 472 kts 134°
2026-04-18 10:08 40.42502 25.99561 36970 ft 472 kts 134°
2026-04-18 10:08 40.38163 26.06021 36962 ft 471 kts 134°
2026-04-18 10:09 40.33832 26.12476 36958 ft 471 kts 134°
2026-04-18 10:09 40.29501 26.18912 36953 ft 471 kts 134°
2026-04-18 10:10 40.25164 26.25334 36950 ft 471 kts 134°
2026-04-18 10:10 40.20824 26.31752 36956 ft 471 kts 134°
2026-04-18 10:11 40.16484 26.38168 36940 ft 470 kts 134°
2026-04-18 10:11 40.12145 26.44487 36944 ft 470 kts 136°
2026-04-18 10:12 40.07542 26.50531 36937 ft 469 kts 139°
2026-04-18 10:12 40.02822 26.56388 36937 ft 469 kts 139°
2026-04-18 10:13 39.98122 26.62296 36926 ft 469 kts 138°
2026-04-18 10:13 39.93462 26.68256 36924 ft 469 kts 138°
2026-04-18 10:14 39.88812 26.74236 36914 ft 469 kts 138°
2026-04-18 10:14 39.84154 26.80187 36906 ft 469 kts 138°
2026-04-18 10:15 39.79509 26.86083 36904 ft 469 kts 138°
2026-04-18 10:15 39.74828 26.91989 36904 ft 468 kts 139°
2026-04-18 10:16 39.70096 26.97800 36906 ft 467 kts 140°
2026-04-18 10:16 39.65354 27.03565 36904 ft 467 kts 139°
2026-04-18 10:17 39.60626 27.09332 36905 ft 466 kts 139°
2026-04-18 10:17 39.55912 27.15092 36905 ft 465 kts 140°
2026-04-18 10:18 39.51232 27.20796 36903 ft 464 kts 139°
2026-04-18 10:18 39.46938 27.27061 36899 ft 466 kts 131°
2026-04-18 10:19 39.42822 27.33527 36894 ft 465 kts 132°
2026-04-18 10:19 39.38697 27.39971 36890 ft 464 kts 132°
2026-04-18 10:20 39.34577 27.46395 36879 ft 464 kts 131°
2026-04-18 10:20 39.30457 27.52809 36888 ft 463 kts 133°
2026-04-18 10:21 39.26368 27.59163 36879 ft 463 kts 132°
2026-04-18 10:21 39.22252 27.65555 36874 ft 462 kts 131°
2026-04-18 10:22 39.18138 27.71932 36869 ft 462 kts 133°
2026-04-18 10:22 39.14018 27.78288 36874 ft 462 kts 132°
2026-04-18 10:23 39.09907 27.84636 36870 ft 462 kts 133°
2026-04-18 10:23 39.05791 27.90978 36867 ft 461 kts 133°
2026-04-18 10:24 39.01675 27.97296 36865 ft 460 kts 132°
2026-04-18 10:24 38.97563 28.03595 36870 ft 459 kts 132°
2026-04-18 10:25 38.93487 28.09836 36866 ft 458 kts 132°
2026-04-18 10:25 38.89388 28.16096 36866 ft 457 kts 132°
2026-04-18 10:26 38.85295 28.22329 36852 ft 457 kts 132°
2026-04-18 10:26 38.81200 28.28555 36853 ft 456 kts 132°
2026-04-18 10:27 38.77109 28.34762 36843 ft 456 kts 132°
2026-04-18 10:27 38.73016 28.40970 36849 ft 455 kts 132°
2026-04-18 10:28 38.68925 28.47158 36852 ft 455 kts 132°
2026-04-18 10:28 38.64831 28.53337 36854 ft 455 kts 132°
2026-04-18 10:29 38.60730 28.59500 36845 ft 455 kts 132°
2026-04-18 10:29 38.56220 28.65083 36842 ft 450 kts 147°
2026-04-18 10:30 38.51131 28.69636 36839 ft 450 kts 147°
2026-04-18 10:30 38.46007 28.74221 36837 ft 449 kts 147°
2026-04-18 10:31 38.40890 28.78794 36834 ft 449 kts 147°
2026-04-18 10:31 38.35772 28.83362 36835 ft 449 kts 147°
2026-04-18 10:32 38.30658 28.87923 36832 ft 449 kts 147°
2026-04-18 10:32 38.25542 28.92467 36826 ft 448 kts 147°
2026-04-18 10:33 38.20427 28.97006 36817 ft 448 kts 147°
2026-04-18 10:33 38.15324 29.01533 36815 ft 447 kts 147°
2026-04-18 10:34 38.10214 29.06046 36812 ft 447 kts 147°
2026-04-18 10:34 38.05097 29.10554 36814 ft 447 kts 147°
2026-04-18 10:35 37.99988 29.15068 36809 ft 447 kts 147°
2026-04-18 10:35 37.94909 29.19544 36811 ft 447 kts 147°
2026-04-18 10:36 37.89801 29.24026 36807 ft 447 kts 147°
2026-04-18 10:36 37.84690 29.28498 36802 ft 446 kts 147°
2026-04-18 10:37 37.79586 29.32970 36795 ft 446 kts 147°
2026-04-18 10:37 37.74494 29.37425 36794 ft 445 kts 147°
2026-04-18 10:38 37.69396 29.41877 36795 ft 445 kts 147°
2026-04-18 10:38 37.64304 29.46311 36787 ft 444 kts 147°
2026-04-18 10:39 37.59219 29.50732 36777 ft 444 kts 147°
2026-04-18 10:39 37.54143 29.55146 36775 ft 443 kts 147°
2026-04-18 10:40 37.49108 29.59516 36765 ft 442 kts 147°
2026-04-18 10:40 37.44042 29.63895 36753 ft 441 kts 148°
2026-04-18 10:41 37.38980 29.68267 36743 ft 441 kts 147°
2026-04-18 10:41 37.33921 29.72632 36746 ft 441 kts 147°
2026-04-18 10:42 37.28875 29.76990 36739 ft 440 kts 147°
2026-04-18 10:42 37.23830 29.81336 36744 ft 439 kts 147°
2026-04-18 10:43 37.18787 29.85676 36742 ft 439 kts 147°
2026-04-18 10:43 37.13744 29.90003 36747 ft 439 kts 147°
2026-04-18 10:44 37.08707 29.94323 36743 ft 439 kts 148°
2026-04-18 10:44 37.03672 29.98637 36746 ft 438 kts 148°
2026-04-18 10:45 36.98672 30.02920 36743 ft 438 kts 148°
2026-04-18 10:45 36.93650 30.07214 36743 ft 437 kts 148°
2026-04-18 10:46 36.88625 30.11497 36735 ft 437 kts 148°
2026-04-18 10:46 36.83597 30.15768 36751 ft 437 kts 148°
2026-04-18 10:47 36.78576 30.20026 36740 ft 436 kts 148°
2026-04-18 10:47 36.73550 30.24272 36744 ft 436 kts 148°
2026-04-18 10:48 36.68569 30.28485 36740 ft 435 kts 148°
2026-04-18 10:48 36.63563 30.32725 36739 ft 435 kts 148°
2026-04-18 10:49 36.58566 30.36942 36733 ft 434 kts 148°
2026-04-18 10:49 36.53573 30.41135 36733 ft 432 kts 148°
2026-04-18 10:50 36.48595 30.45308 36727 ft 431 kts 148°
2026-04-18 10:50 36.43625 30.49473 36725 ft 430 kts 148°
2026-04-18 10:51 36.38669 30.53626 36719 ft 429 kts 148°
2026-04-18 10:51 36.33751 30.57741 36719 ft 429 kts 148°
2026-04-18 10:52 36.28799 30.61874 36714 ft 429 kts 148°
2026-04-18 10:52 36.23853 30.65997 36714 ft 429 kts 148°
2026-04-18 10:53 36.19702 30.69447 36709 ft 429 kts 148°
2026-04-18 10:53 36.14753 30.73569 36705 ft 429 kts 148°
2026-04-18 10:54 36.09834 30.77656 36703 ft 429 kts 148°
2026-04-18 10:54 36.04691 30.81315 36701 ft 425 kts 161°
2026-04-18 10:55 35.98957 30.82776 36700 ft 422 kts 178°
2026-04-18 10:55 35.93096 30.83108 36698 ft 422 kts 178°
2026-04-18 10:56 35.87233 30.83456 36702 ft 422 kts 178°
2026-04-18 10:56 35.81368 30.83815 36702 ft 422 kts 178°
2026-04-18 10:57 35.75537 30.84171 36702 ft 422 kts 178°
2026-04-18 10:57 35.69672 30.84525 36703 ft 422 kts 178°
2026-04-18 10:58 35.63928 30.85972 36308 ft 430 kts 158°
2026-04-18 10:58 35.61312 30.87779 35591 ft 434 kts 146°
2026-04-18 10:58 35.59064 30.90263 34900 ft 438 kts 134°
2026-04-18 10:58 35.57249 30.93280 34229 ft 441 kts 126°
2026-04-18 10:59 35.55572 30.96437 33551 ft 441 kts 127°
2026-04-18 10:59 35.53888 30.99585 32795 ft 442 kts 127°
2026-04-18 10:59 35.52195 31.02734 32065 ft 443 kts 127°
2026-04-18 10:59 35.50493 31.05898 31356 ft 445 kts 127°
2026-04-18 11:00 35.48786 31.09072 30659 ft 447 kts 128°
2026-04-18 11:00 35.47071 31.12260 29986 ft 449 kts 128°
2026-04-18 11:00 35.45349 31.15459 29261 ft 450 kts 128°
2026-04-18 11:00 35.43620 31.18672 28512 ft 451 kts 128°
2026-04-18 11:01 35.41886 31.21889 27780 ft 452 kts 128°
2026-04-18 11:01 35.40174 31.25061 27063 ft 453 kts 128°
2026-04-18 11:01 35.38437 31.28279 26364 ft 453 kts 128°
2026-04-18 11:02 35.34986 31.34668 25034 ft 445 kts 128°
2026-04-18 11:02 35.33287 31.37809 24404 ft 439 kts 128°
2026-04-18 11:02 35.31611 31.40907 23773 ft 434 kts 128°
2026-04-18 11:02 35.29955 31.43967 23137 ft 428 kts 128°
2026-04-18 11:03 35.28319 31.46989 22399 ft 423 kts 128°
2026-04-18 11:03 35.26700 31.49970 21682 ft 418 kts 128°
2026-04-18 11:03 35.25097 31.52918 20987 ft 414 kts 128°
2026-04-18 11:03 35.23512 31.55831 20300 ft 409 kts 128°
2026-04-18 11:04 35.21941 31.58715 19780 ft 405 kts 128°
2026-04-18 11:04 35.20380 31.61569 19353 ft 402 kts 128°
2026-04-18 11:04 35.18831 31.64403 18922 ft 400 kts 128°
2026-04-18 11:04 35.17291 31.67222 18488 ft 397 kts 128°
2026-04-18 11:05 35.15761 31.70020 18066 ft 395 kts 128°
2026-04-18 11:05 35.14238 31.72807 17605 ft 393 kts 128°
2026-04-18 11:05 35.12723 31.75575 17122 ft 391 kts 129°
2026-04-18 11:05 35.11217 31.78327 16646 ft 389 kts 129°
2026-04-18 11:06 35.09719 31.81066 16189 ft 387 kts 129°
2026-04-18 11:06 35.08230 31.83789 15737 ft 385 kts 129°
2026-04-18 11:06 35.06743 31.86499 15286 ft 383 kts 129°
2026-04-18 11:06 35.05262 31.89191 14837 ft 381 kts 129°
2026-04-18 11:07 35.03787 31.91868 14409 ft 379 kts 129°
2026-04-18 11:07 35.02321 31.94535 13979 ft 378 kts 129°
2026-04-18 11:07 35.00861 31.97192 13553 ft 376 kts 129°
2026-04-18 11:07 34.99406 31.99834 13094 ft 374 kts 129°
2026-04-18 11:08 34.97978 32.02427 12634 ft 372 kts 129°
2026-04-18 11:08 34.96535 32.05039 12177 ft 371 kts 129°
2026-04-18 11:08 34.95096 32.07640 11718 ft 369 kts 129°
2026-04-18 11:08 34.93667 32.10227 11275 ft 367 kts 129°
2026-04-18 11:09 34.92247 32.12794 10837 ft 365 kts 129°
2026-04-18 11:09 34.90829 32.15346 10405 ft 363 kts 129°
2026-04-18 11:09 34.89419 32.17883 9976 ft 358 kts 129°
2026-04-18 11:09 34.88049 32.20352 9688 ft 344 kts 129°
2026-04-18 11:10 34.86747 32.22703 9660 ft 325 kts 129°
2026-04-18 11:10 34.85519 32.24921 9667 ft 307 kts 129°
2026-04-18 11:10 34.84358 32.27012 9670 ft 290 kts 129°
2026-04-18 11:10 34.83253 32.28992 9668 ft 279 kts 130°
2026-04-18 11:11 34.82187 32.30896 9666 ft 265 kts 130°
2026-04-18 11:11 34.81167 32.32725 9555 ft 258 kts 130°
2026-04-18 11:11 34.80165 32.34515 9416 ft 255 kts 130°
2026-04-18 11:11 34.79169 32.36289 9297 ft 251 kts 130°
2026-04-18 11:12 34.78208 32.38011 9164 ft 241 kts 131°
2026-04-18 11:12 34.77299 32.39643 8957 ft 231 kts 131°
2026-04-18 11:12 34.76408 32.41241 8538 ft 227 kts 131°
2026-04-18 11:12 34.75519 32.42828 8066 ft 227 kts 131°
2026-04-18 11:13 34.74627 32.44415 7648 ft 225 kts 131°
2026-04-18 11:13 34.73749 32.45980 7482 ft 224 kts 131°
2026-04-18 11:13 34.72873 32.47544 7367 ft 224 kts 131°
2026-04-18 11:13 34.71997 32.49109 7272 ft 225 kts 131°
2026-04-18 11:14 34.71110 32.50670 7167 ft 222 kts 135°
2026-04-18 11:14 34.70115 32.52095 6879 ft 222 kts 137°
2026-04-18 11:14 34.69107 32.53527 6552 ft 224 kts 136°
2026-04-18 11:14 34.68095 32.54969 6235 ft 224 kts 136°
2026-04-18 11:15 34.67093 32.56395 5919 ft 218 kts 136°
2026-04-18 11:15 34.66129 32.57769 5613 ft 209 kts 136°
2026-04-18 11:15 34.65205 32.59088 5316 ft 201 kts 136°
2026-04-18 11:15 34.64319 32.60350 5078 ft 190 kts 136°
2026-04-18 11:16 34.63496 32.61524 4828 ft 176 kts 136°
2026-04-18 11:16 34.62722 32.62626 4572 ft 167 kts 136°
2026-04-18 11:16 34.61976 32.63684 4348 ft 164 kts 135°
2026-04-18 11:16 34.61251 32.64739 4134 ft 162 kts 129°
2026-04-18 11:17 34.60816 32.66021 4013 ft 170 kts 107°
2026-04-18 11:17 34.60877 32.67460 3875 ft 180 kts 83°
2026-04-18 11:17 34.61513 32.68814 3733 ft 193 kts 53°
2026-04-18 11:17 34.62677 32.69685 3579 ft 205 kts 21°
2026-04-18 11:18 34.64102 32.69734 3421 ft 210 kts 347°
2026-04-18 11:18 34.65362 32.68869 3190 ft 212 kts 310°
2026-04-18 11:18 34.66073 32.67358 2969 ft 204 kts 286°
2026-04-18 11:18 34.66559 32.65739 2703 ft 203 kts 284°
2026-04-18 11:19 34.67044 32.64122 2431 ft 203 kts 284°
2026-04-18 11:19 34.67535 32.62507 2169 ft 203 kts 287°
2026-04-18 11:19 34.68015 32.60942 1923 ft 195 kts 288°
2026-04-18 11:19 34.68488 32.59392 1658 ft 197 kts 288°
2026-04-18 11:20 34.68956 32.57861 1397 ft 190 kts 290°
2026-04-18 11:20 34.69406 32.56387 1166 ft 180 kts 289°
2026-04-18 11:20 34.69826 32.55013 949 ft 166 kts 287°
2026-04-18 11:20 34.70203 32.53783 748 ft 147 kts 287°
2026-04-18 11:21 34.70542 32.52672 570 ft 134 kts 286°
2026-04-18 11:21 34.70860 32.51622 380 ft 132 kts 288°
2026-04-18 11:21 34.71182 32.50571 203 ft 133 kts 287°
2026-04-18 11:21 34.71493 32.49526 47 ft 129 kts 287°
2026-04-18 11:22 34.71748 32.48709 44 ft 67 kts 292°
2026-04-18 11:22 34.71811 32.48439 42 ft 9 kts 242°
2026-04-18 11:22 34.71764 32.48400 45 ft 9 kts 200°
2026-04-18 11:22 34.71698 32.48371 44 ft 11 kts 200°
2026-04-18 11:23 34.71602 32.48326 44 ft 17 kts 201°
2026-04-18 11:23 34.71497 32.48281 44 ft 15 kts 200°
2026-04-18 11:23 34.71405 32.48279 44 ft 12 kts 128°
2026-04-18 11:23 34.71379 32.48363 44 ft 11 kts 111°
2026-04-18 11:24 34.71347 32.48468 43 ft 17 kts 108°
2026-04-18 11:24 34.71381 32.48594 43 ft 14 kts 68°
2026-04-18 11:24 34.71415 32.48695 41 ft 12 kts 66°
2026-04-18 11:24 34.71443 32.48770 43 ft 9 kts 66°
2026-04-18 11:25 34.71418 32.48814 43 ft 5 kts 153°
2026-04-18 11:25 34.71382 32.48834 43 ft 4 kts 156°
2026-04-18 11:25 34.71368 32.48841 41 ft 1 kts 156°
2026-04-18 11:25 34.71365 32.48843 41 ft 0 kts 156°